Regional Weather Roundup
Issued by NWS Sioux Falls, SD

Home | Current Version | Previous Version | Graphics & Text | Print | Product List | Glossary On
Versions: 1 2 3 4 5 6 7 8 9 10 11 12 13 14 15 16 17 18 19 20 21 22 23 24 25 26 27 28 29 30 31 32 33 34 35 36 37 38 39 40 41 42 43 44 45 46 47 48 49 50
000
ASUS43 KFSD 180110
RWRFSD

WEATHER ROUNDUP FOR SE SOUTH DAKOTA/SW MINNESOTA/NW IOWA
NATIONAL WEATHER SERVICE SIOUX FALLS SD
800 PM CDT TUE OCT 17 2017

NOTE: "FAIR" INDICATES FEW OR NO CLOUDS BELOW 12,000 FEET WITH NO
SIGNIFICANT WEATHER AND OR OBSTRUCTIONS TO VISIBILITY.


SDZ038>040-050-052>070-180200-
SOUTHEAST SOUTH DAKOTA

CITY           SKY/WX    TMP DP  RH WIND       PRES   REMARKS
BROOKINGS      CLEAR     62  40  44 S9        29.90R
CHAMBERLAIN    CLEAR     58  40  51 SE8       29.85S
HURON          CLEAR     65  41  41 S8        29.84S
MADISON        FAIR      57  39  51 S9        29.91S
MITCHELL       CLEAR     62  42  47 S12       29.88S
SIOUX FALLS    CLEAR     60  42  51 S10       29.91S
WINNER         FAIR      69  35  28 S13       29.86S
YANKTON        CLEAR     66  39  37 E5        29.92S
$$

MNZ071-072-080-081-089-090-097-098-180200-
SOUTHWEST MINNESOTA

CITY           SKY/WX    TMP DP  RH WIND       PRES   REMARKS
FAIRMONT       CLEAR     56  44  64 S9        29.96R
JACKSON        CLEAR     59  37  44 S8        29.96S
LUVERNE        CLEAR     54  36  50 CALM      29.93S
MARSHALL       CLEAR     59  42  53 S9        29.89S
MONTEVIDEO     CLEAR     63  37  39 SW6       29.87S
PIPESTONE      CLEAR     59  39  47 S7        29.92F
REDWOOD FALLS  CLEAR     62  39  42 S9        29.90R
TRACY          CLEAR     65  41  40 S9        29.91S
WORTHINGTON    CLEAR     58  40  51 S8        29.95S
$$

IAZ001>003-012>014-020>022-031-032-NEZ013-014-SDZ071-180200-
NORTHWEST IOWA

CITY           SKY/WX    TMP DP  RH WIND       PRES   REMARKS
CHEROKEE       CLEAR     56  46  66 S8        29.98R
DENISON        CLEAR     57  46  67 S6        30.01S
ESTHERVILLE    CLEAR     56  45  66 S8        29.96R
LE MARS        CLEAR     59  46  63 S8        29.96R
ORANGE CITY    CLEAR     61  46  59 S6        29.96S
SHELDON        CLEAR     59  41  51 S8        29.94S
SIOUX CITY     CLEAR     61  47  59 SE7       29.97R
SPENCER        CLEAR     59  43  55 S9        29.96S
STORM LAKE     CLEAR     55  45  67 S9        29.99S
$$

ABBREVIATIONS USED IN REMARKS
   TC - TEMPERATURE IN CELSIUS
  WCI - WIND CHILL INDEX
   HX - HEAT INDEX
  VSB - VISIBILITY





USA.gov is the U.S. government's official web portal to all federal, state and local government web resources and services.